Weather in Bedford

United States     42°56′47″N   71°30′58″W
temp.,
°C
wind,
m/s
gust,
m/s
humid.,
%
clouds,
%
prec.,
mm/h
press.,
hPa
HPBL,
m
17 may, mon
mon1723:00+10wnw229373 0.1 102420
02:00+9nw239313 0.1 102347
05:00+7ene11954 0.0 102410
08:00+13nw12781 0.0 1025276
11:00+20nnw12475 0.0 10241288
14:00+24ene133691 0.0 10222718
17:00+21ssw244663 0.1 1022857
20:00+13sse38905 0.9 1024242
18 may, tue
tue1823:00+11sw239614 0.2 102451
02:00+10w1190100 0.2 102313
05:00+10w2588100 0.0 102393
08:00+16w397597 0.0 1023368
11:00+21wnw4744100 0.0 10221817
14:00+22nw5642100 0.0 10212344
17:00+20nw3754100 0.0 1021883
20:00+16wnw227399 0.0 102220
19 may, wed
wed1923:00+13wnw237955 0.0 102352
02:00+12wnw228224 0.0 102328
05:00+11wnw228719 0.0 102346
08:00+17nw366410 0.0 1025355
11:00+23nnw35365 0.0 10241505
14:00+26nnw373539 0.0 10232396
17:00+21ene1263100 0.0 102446
20:00+14e11755 0.1 102514
20 may, thu
thu2023:00+11ese11775 0.1 102611
02:00+10ese11695 0.1 102710
05:00+10ene01702 0.0 102910
08:00+15ese12555 0.0 1030305
11:00+21se22456 0.0 1030901
14:00+25sse22424 0.0 10291429
17:00+24ese544656 0.0 1027817
20:00+13se378598 0.7 1029177
21 may, fri
fri2123:00+11ese2288100 0.3 103056
02:00+11se1192100 0.3 102925
05:00+10s1196100 0.0 102916
08:00+14s1182100 0.0 1029203
11:00+19sse2262100 0.0 1028588
14:00+23sse2456100 0.0 10261117
17:00+21wsw2476100 0.1 1025198
20:00+17ese1194100 0.3 102412